TimeEST,TemperatureF,Dew PointF,Humidity,Sea Level PressureIn,VisibilityMPH,Wind Direction,Wind SpeedMPH,Gust SpeedMPH,PrecipitationIn,Events,Conditions,WindDirDegrees,DateUTC
12:53 AM,34.0,18.0,52,30.23,10.0,Calm,Calm,-,N/A,,Overcast,0,2012-11-06 05:53:00
1:53 AM,34.0,17.1,50,30.23,10.0,Calm,Calm,-,N/A,,Overcast,0,2012-11-06 06:53:00
2:53 AM,33.1,19.0,56,30.22,10.0,Calm,Calm,-,N/A,,Overcast,0,2012-11-06 07:53:00
3:53 AM,32.0,19.4,60,30.17,10.0,Calm,Calm,-,N/A,,Overcast,0,2012-11-06 08:53:00
4:53 AM,30.9,19.9,64,30.21,10.0,SSE,5.8,-,N/A,,Overcast,160,2012-11-06 09:53:00
5:53 AM,30.9,21.0,67,30.21,10.0,South,4.6,-,N/A,,Overcast,170,2012-11-06 10:53:00
6:53 AM,32.0,21.0,64,30.20,10.0,South,4.6,-,N/A,,Overcast,170,2012-11-06 11:53:00
7:00 AM,30.2,21.2,69,30.16,10.0,SSE,3.5,-,N/A,,Mostly Cloudy,150,2012-11-06 12:00:00
7:53 AM,32.0,19.9,61,30.21,10.0,SSE,6.9,-,N/A,,Mostly Cloudy,150,2012-11-06 12:53:00
8:53 AM,33.1,19.9,59,30.22,10.0,SSE,8.1,-,N/A,,Mostly Cloudy,150,2012-11-06 13:53:00
9:53 AM,36.0,19.9,52,30.23,10.0,SE,11.5,-,N/A,,Mostly Cloudy,130,2012-11-06 14:53:00
10:53 AM,36.0,19.9,52,30.22,10.0,Variable,5.8,-,N/A,,Mostly Cloudy,0,2012-11-06 15:53:00
11:53 AM,36.0,19.9,52,30.19,10.0,SE,8.1,-,N/A,,Mostly Cloudy,140,2012-11-06 16:53:00
12:53 PM,39.9,21.9,49,30.16,10.0,SE,5.8,-,N/A,,Mostly Cloudy,140,2012-11-06 17:53:00
1:53 PM,39.9,21.0,47,30.14,10.0,SSE,4.6,-,N/A,,Scattered Clouds,160,2012-11-06 18:53:00
2:53 PM,39.9,24.1,53,30.12,10.0,NE,11.5,-,N/A,,Scattered Clouds,50,2012-11-06 19:53:00
3:53 PM,39.0,23.0,53,30.12,10.0,East,6.9,-,N/A,,Scattered Clouds,80,2012-11-06 20:53:00
4:53 PM,36.0,24.1,62,30.12,10.0,NE,11.5,-,N/A,,Partly Cloudy,50,2012-11-06 21:53:00
5:53 PM,33.1,26.1,75,30.13,10.0,NE,6.9,-,N/A,,Partly Cloudy,50,2012-11-06 22:53:00
6:53 PM,32.0,26.1,79,30.13,10.0,NE,6.9,-,N/A,,Partly Cloudy,50,2012-11-06 23:53:00
7:53 PM,32.0,25.0,75,30.13,10.0,ENE,6.9,-,N/A,,Clear,70,2012-11-07 00:53:00
8:53 PM,32.0,24.1,73,30.11,10.0,ENE,10.4,-,N/A,,Clear,70,2012-11-07 01:53:00
9:53 PM,30.9,23.0,72,30.12,10.0,East,6.9,-,N/A,,Clear,90,2012-11-07 02:53:00
10:53 PM,30.9,23.0,72,30.10,10.0,East,6.9,-,N/A,,Clear,90,2012-11-07 03:53:00
11:53 PM,30.9,21.9,69,30.09,10.0,East,8.1,-,N/A,,Clear,100,2012-11-07 04:53:00